Regional Weather Roundup
Issued by NWS Cleveland, OH

Home | Current Version | Previous Version | Graphics & Text | Print | Product List | Glossary On
Versions: 1 2 3 4 5 6 7 8 9 10 11 12 13 14 15 16 17 18 19 20 21 22 23 24 25 26 27 28 29 30 31 32 33 34 35 36 37 38 39 40 41 42 43 44 45 46 47 48 49 50
000
ASUS41 KCLE 261900
RWRCLE
OHIO REGIONAL WEATHER ROUNDUP
NATIONAL WEATHER SERVICE WILMINGTON, OH
300 PM EDT FRI MAY 26 2017

NOTE: "FAIR" INDICATES FEW OR NO CLOUDS BELOW 12,000 FEET WITH NO
SIGNIFICANT WEATHER AND/OR OBSTRUCTIONS TO VISIBILITY.

OHZ001>008-015>018-024>027-034-035-043-044-262000-
   NORTHWEST OHIO

CITY           SKY/WX    TMP DP  RH WIND       PRES   REMARKS
DEFIANCE       FAIR      70  54  56 VRB6      29.86S
FINDLAY        FAIR      71  53  52 NW8       29.86F
TOLEDO EXPRESS PTSUNNY   69  54  58 CALM      29.85F
TOLEDO EXEC    PTSUNNY   69  54  58 VRB3      29.86F
LIMA           FAIR      71  58  63 W7        29.88S
$$

OHZ009>014-019>023-028>033-038-089-262000-
   NORTHEAST OHIO

CITY           SKY/WX    TMP DP  RH WIND       PRES   REMARKS
CLE-HOPKINS    CLOUDY    63  52  67 W10       29.91R
CLE-LAKEFRONT  CLOUDY    62  54  74 W15       29.88R
CUY CO. ARPT   CLOUDY    63  54  72 W14       29.89R
LORAIN-ELYRIA  CLOUDY    62  50  64 NW8       29.89S
ASHTABULA      CLOUDY    60  54  80 W13       29.87R
AKRON-CANTON   CLOUDY    63  55  75 NW10      29.90R
WOOSTER        NOT AVBL
MANSFIELD      CLOUDY    66  54  65 NW9       29.88F
YOUNGSTOWN     CLOUDY    62  51  67 W10       29.87R
$$

OHZ042-051>053-060>062-070>072-077>081-262000-
  SOUTHWEST OHIO

CITY           SKY/WX    TMP DP  RH WIND       PRES   REMARKS
CINC-COVINGTON FAIR      75  58  55 S9        29.88F
CINC-LUNKEN    FAIR      77  59  53 S9        29.88F
HAMILTON       FAIR      76  58  53 SW10      29.88F
DAYTON         NOT AVBL
WRIGHT-PAT AFB PTSUNNY   73  55  54 W12       29.89S
DAYTON GENERAL FAIR      74  54  49 W9        29.89F
WILMINGTON     FAIR      73  58  59 W10       29.89F
$$

OHZ036-037-039>041-045>050-054>059-063>069-073>076-082>088-262000-
  CENTRAL AND SOUTHEAST OHIO

CITY           SKY/WX    TMP DP  RH WIND       PRES   REMARKS
COLUMBUS       PTSUNNY   74  56  53 W14       29.88F
OSU AIRPORT    PTSUNNY   72  56  57 W9        29.88F
BOLTON FIELD   NOT AVBL
RICKENBACK AFB NOT AVBL
NEWARK         FAIR      74  55  51 NW10      29.87F
MARION         FAIR      69  54  58 NW10      29.88F
LANCASTER      PTSUNNY   74  55  51 W9        29.90F
ZANESVILLE     PTSUNNY   72  53  51 W15G23    29.88F
NEW PHILLY     CLOUDY    67  56  67 NW8       29.89S
$$




USA.gov is the U.S. government's official web portal to all federal, state and local government web resources and services.